Regional Weather Roundup
Issued by NWS

Home | Current Version | Previous Version | Graphics & Text | Print | Product List | Glossary On
Versions: 1 2 3 4 5 6 7 8 9 10 11 12 13 14 15 16 17 18 19 20 21 22 23 24 25 26 27 28 29 30 31 32 33 34 35 36 37 38 39 40 41 42 43 44 45 46 47 48 49
000
ASUS45 KSLC 200610
RWRUT

UTAH REGIONAL WEATHER ROUNDUP
NATIONAL WEATHER SERVICE SALT LAKE CITY UT
1200 AM MDT SAT SEP 20 2014

UTZ001>011-023>025-200700-

NORTHERN UTAH

CITY           SKY/WX    TMP DP  RH WIND       PRES   REMARKS
HILL AFB       CLEAR     67  45  45 SE15      30.12R
LOGAN          CLEAR     57  53  86 CALM      30.14R
OGDEN          CLEAR     66  44  45 S7        30.09R
PROVO AIRPORT  CLEAR     63  54  72 SE7       30.11S
SALT LAKE CITY CLEAR     66  52  60 CALM      30.08R
VERNAL         CLEAR     65  45  48 MISG      30.12R
WENDOVER       CLEAR     66  43  42 NE5       30.10R
HEBER CITY     CLEAR     52  46  82 CALM      30.18R
WEST JORDAN    CLEAR     61  45  55 CALM      30.12R

$$

UTZ012>022-026-027-200700-

SOUTHERN UTAH

CITY           SKY/WX    TMP DP  RH WIND       PRES   REMARKS
BRYCE CANYON   CLEAR     49  43  80 W7        30.28R
CEDAR CITY     CLEAR     65  44  46 SE6       30.12S
MILFORD        CLOUDY    66  40  38 NW9       30.08R
MOAB/CYNLANDS  CLEAR     69  42  37 CALM      30.00R
PRICE          CLEAR     68  44  42 N5        30.14S
ST GEORGE      CLEAR     79  46  31 CALM      29.94R
KANAB            N/A     66  46  48 S3        30.10R

$$

REGIONAL REPORTS     COLORADO/ARIZONA

CITY           SKY/WX    TMP DP  RH WIND       PRES   REMARKS
CRAIG, CO      CLEAR     52  43  71 CALM      30.20R
GRAND JUNCTION CLEAR     70  43  37 CALM      30.04S
RIFLE          CLEAR     60  44  55 E6        30.12R
MONTROSE       CLEAR     61  46  57 SE7       30.13R
CORTEZ         CLEAR     56  47  71 E3        30.12R
PAGE, AZ       CLEAR     77  49  37 SE3       29.99R
GRAND CANYON   CLEAR     52  51  97 NE6       30.21R
KINGMAN        PTCLDY    70  47  43 S5        29.99R
FLAGSTAFF      CLEAR     52  50  93 CALM      30.23S

$$

REGIONAL REPORTS    NEVADA/IDAHO/WYOMING

CITY           SKY/WX    TMP DP  RH WIND       PRES   REMARKS
LAS VEGAS, NV  PTCLDY    86  32  14 S8        29.84R
ELY            CLEAR     55  34  45 S7        30.20R
ELKO           CLEAR     67  40  37 NE9       30.12R
POCATELLO, ID  CLEAR     56  44  64 SE3       30.13S
BURLEY         CLEAR     52  44  74 SW7       30.11R
EVANSTON, WY   CLEAR     58  38  47 CALM      30.29R
ROCK SPRINGS   CLEAR     57  34  41 N8        30.24R

$$


USA.gov is the U.S. government's official web portal to all federal, state and local government web resources and services.